GW4707 Weather Reports


time (UTC)temp
F
wind
direction
speed
knots
gust
knots
rain 1hr
in
rain 24hr
in
rain mn
in
humidity
%
barometer
mb
20260507222504 63 360 1.7 3.5 0.00 0.00 0.00 56 1019.9
20260507222013 63 360 0.9 2.6 0.00 0.00 0.00 56 1019.9
20260507221520 63 360 0.9 2.6 0.00 0.00 0.00 55 1019.9
20260507221010 63 360 0.9 4.3 0.00 0.00 0.00 55 1019.9
20260507220510 63 360 1.7 4.3 0.00 0.00 0.00 55 1019.9
20260507220024 63 360 1.7 4.3 0.00 0.00 0.00 55 1019.9
20260507215514 64 360 0.9 3.5 0.00 0.00 0.00 55 1019.9
20260507215010 64 360 0.9 2.6 0.00 0.00 0.00 55 1019.9
20260507214525 64 360 0.0 4.3 0.00 0.00 0.00 54 1020.0
20260507214012 64 360 1.7 4.3 0.00 0.00 0.00 54 1020.1
20260507213514 64 360 1.7 4.3 0.00 0.00 0.00 54 1020.1
20260507213013 65 360 2.6 5.2 0.00 0.00 0.00 53 1020.1
20260507212510 65 360 2.6 5.2 0.00 0.00 0.00 53 1020.1
20260507212012 65 360 2.6 4.3 0.00 0.00 0.00 53 1020.1
20260507211531 65 360 0.9 2.6 0.00 0.00 0.00 53 1020.0
20260507211007 65 360 0.0 3.5 0.00 0.00 0.00 52 1019.9
20260507210507 65 360 0.9 3.5 0.00 0.00 0.00 52 1019.9
20260507210033 65 360 0.9 3.5 0.00 0.00 0.00 52 1020.0
20260507205511 65 360 0.9 3.5 0.00 0.00 0.00 52 1019.9
20260507205008 65 360 1.7 3.5 0.00 0.00 0.00 52 1020.0
20260507204525 65 360 0.9 3.5 0.00 0.00 0.00 52 1020.0
20260507204009 65 360 1.7 4.3 0.00 0.00 0.00 51 1020.0
20260507203509 66 360 1.7 4.3 0.00 0.00 0.00 50 1019.9
20260507203033 66 360 1.7 4.3 0.00 0.00 0.00 50 1019.9
20260507202508 66 360 2.6 4.3 0.00 0.00 0.00 49 1020.0
20260507202005 67 360 2.6 4.3 0.00 0.00 0.00 48 1019.9
20260507201515 67 360 1.7 3.5 0.00 0.00 0.00 48 1020.0
20260507201007 68 360 1.7 3.5 0.00 0.00 0.00 47 1020.0
20260507200506 68 360 1.7 3.5 0.00 0.00 0.00 46 1019.9
20260507200018 69 360 0.9 2.6 0.00 0.00 0.00 45 1019.9
20260507195508 69 360 0.0 3.5 0.00 0.00 0.00 44 1020.0
20260507195008 69 360 0.0 3.5 0.00 0.00 0.00 44 1020.0
20260507194529 70 360 1.7 4.3 0.00 0.00 0.00 43 1020.0
20260507194007 70 360 2.6 5.2 0.00 0.00 0.00 42 1020.1
20260507193508 70 360 1.7 5.2 0.00 0.00 0.00 42 1020.1
20260507193032 70 360 1.7 4.3 0.00 0.00 0.00 42 1020.1
20260507192509 71 360 0.9 4.3 0.00 0.00 0.00 41 1020.0
20260507192010 71 360 2.6 7.0 0.00 0.00 0.00 41 1020.0
20260507191527 71 360 3.5 7.0 0.00 0.00 0.00 40 1020.0
20260507191009 71 360 3.5 7.8 0.00 0.00 0.00 39 1020.0
20260507190508 71 360 4.3 7.8 0.00 0.00 0.00 38 1020.0
20260507190018 71 360 3.5 7.8 0.00 0.00 0.00 38 1019.8
20260507185506 71 360 3.5 7.0 0.00 0.00 0.00 38 1019.7
20260507185008 71 360 2.6 7.0 0.00 0.00 0.00 38 1019.7
20260507184524 71 360 2.6 5.2 0.00 0.00 0.00 38 1019.8
20260507184009 71 360 0.0 2.6 0.00 0.00 0.00 39 1019.7
20260507183512 71 360 0.9 2.6 0.00 0.00 0.00 39 1019.7
20260507183040 71 360 0.0 0.9 0.00 0.00 0.00 37 1019.6
20260507182509 71 360 0.0 2.6 0.00 0.00 0.00 38 1019.6
20260507182010 71 360 0.0 3.5 0.00 0.00 0.00 38 1019.6
20260507181530 71 360 0.0 3.5 0.00 0.00 0.00 38 1019.5
20260507181013 71 360 0.9 3.5 0.00 0.00 0.00 37 1019.4
20260507180510 71 360 0.9 3.5 0.00 0.00 0.00 37 1019.4
20260507180033 72 360 0.9 2.6 0.00 0.00 0.00 42 1019.3
20260507175516 72 360 0.9 2.6 0.00 0.00 0.00 44 1019.1
20260507175006 73 360 0.0 2.6 0.00 0.00 0.00 40 1019.0
20260507174522 73 360 0.0 1.7 0.00 0.00 0.00 37 1019.0
20260507174008 73 360 0.0 1.7 0.00 0.00 0.00 34 1018.9
20260507173507 73 360 0.0 1.7 0.00 0.00 0.00 33 1019.0
20260507173024 73 360 0.0 2.6 0.00 0.00 0.00 33 1019.0
20260507172510 73 360 0.0 2.6 0.00 0.00 0.00 32 1018.9
20260507172010 73 360 0.9 3.5 0.00 0.00 0.00 32 1018.9
20260507171528 73 360 0.9 4.3 0.00 0.00 0.00 32 1019.0
20260507171007 73 360 1.7 4.3 0.00 0.00 0.00 31 1019.0
20260507170504 73 360 1.7 5.2 0.00 0.00 0.00 31 1019.0
20260507170017 74 360 2.6 5.2 0.00 0.00 0.00 30 1019.1
20260507165504 74 360 1.7 7.8 0.00 0.00 0.00 30 1019.1
20260507165010 74 360 2.6 7.8 0.00 0.00 0.00 29 1019.1
20260507164520 74 360 3.5 7.8 0.00 0.00 0.00 29 1019.1
20260507164007 74 360 2.6 7.8 0.00 0.00 0.00 29 1019.1
20260507163506 74 360 4.3 10.4 0.00 0.00 0.00 29 1019.1
20260507163021 74 360 4.3 10.4 0.00 0.00 0.00 29 1019.1
20260507162506 74 360 6.1 8.7 0.00 0.00 0.00 29 1019.1
20260507162010 75 360 4.3 9.6 0.00 0.00 0.00 29 1019.1
20260507161531 75 360 4.3 9.6 0.00 0.00 0.00 28 1019.0
20260507161006 75 360 3.5 9.6 0.00 0.00 0.00 29 1018.9
20260507160506 75 360 5.2 9.6 0.00 0.00 0.00 29 1018.9
20260507160037 75 360 5.2 9.6 0.00 0.00 0.00 29 1018.9
20260507155508 75 360 5.2 9.6 0.00 0.00 0.00 29 1019.0
20260507155004 75 360 2.6 9.6 0.00 0.00 0.00 31 1019.0
20260507154516 76 360 2.6 9.6 0.00 0.00 0.00 31 1018.9
20260507154010 76 360 2.6 7.8 0.00 0.00 0.00 31 1018.9
20260507153507 76 360 3.5 7.8 0.00 0.00 0.00 31 1019.0
20260507153022 76 360 2.6 7.8 0.00 0.00 0.00 30 1018.9
20260507152508 76 360 3.5 9.6 0.00 0.00 0.00 30 1019.0
20260507152007 77 360 3.5 9.6 0.00 0.00 0.00 29 1019.1
20260507151524 77 360 2.6 8.7 0.00 0.00 0.00 29 1019.1
20260507151008 77 360 2.6 9.6 0.00 0.00 0.00 29 1019.1
20260507150507 77 190 4.3 9.6 0.00 0.00 0.00 29 1019.2
20260507150027 77 213 5.2 10.4 0.00 0.00 0.00 29 1019.2
20260507145510 77 217 4.3 11.3 0.00 0.00 0.00 29 1019.2
20260507145007 77 148 6.1 11.3 0.00 0.00 0.00 29 1019.3
20260507144529 77 182 5.2 11.3 0.00 0.00 0.00 30 1019.3
20260507144012 77 207 3.5 9.6 0.00 0.00 0.00 31 1019.4
20260507143508 78 184 3.5 10.4 0.00 0.00 0.00 31 1019.3
20260507143020 78 193 5.2 10.4 0.00 0.00 0.00 31 1019.3
20260507142506 77 131 5.2 10.4 0.00 0.00 0.00 32 1019.3
20260507142007 77 179 3.5 10.4 0.00 0.00 0.00 33 1019.3
20260507141524 76 360 5.2 10.4 0.00 0.00 0.00 34 1019.3
20260507141004 76 164 4.3 12.2 0.00 0.00 0.00 34 1019.3
20260507140504 76 182 5.2 12.2 0.00 0.00 0.00 35 1019.3
20260507140009 76 211 3.5 12.2 0.00 0.00 0.00 36 1019.3
20260507135503 76 194 5.2 12.2 0.00 0.00 0.00 36 1019.3
20260507135004 76 360 5.2 13.9 0.00 0.00 0.00 35 1019.3
20260507134510 76 360 6.1 13.9 0.00 0.00 0.00 35 1019.4
20260507134005 76 360 5.2 12.2 0.00 0.00 0.00 35 1019.5
20260507133506 76 360 6.1 13.0 0.00 0.00 0.00 36 1019.5
20260507133017 77 360 8.7 13.0 0.00 0.00 0.00 35 1019.5
20260507132504 77 360 5.2 11.3 0.00 0.00 0.00 37 1019.5
20260507132006 78 360 5.2 11.3 0.00 0.00 0.00 37 1019.5
20260507131520 78 186 2.6 9.6 0.00 0.00 0.00 36 1019.5
20260507131009 78 360 4.3 9.6 0.00 0.00 0.00 36 1019.5
20260507130504 78 202 3.5 9.6 0.00 0.00 0.00 35 1019.5
20260507130021 79 180 3.5 9.6 0.00 0.00 0.00 34 1019.4
20260507125504 79 178 2.6 12.2 0.00 0.00 0.00 33 1019.4
20260507125004 79 215 7.0 12.2 0.00 0.00 0.00 32 1019.4
20260507124513 80 188 5.2 12.2 0.00 0.00 0.00 32 1019.4
20260507124004 81 220 6.1 12.2 0.00 0.00 0.00 31 1019.4
20260507123505 81 202 1.7 10.4 0.00 0.00 0.00 31 1019.5
20260507123017 80 154 3.5 8.7 0.00 0.00 0.00 31 1019.4
20260507122505 80 161 3.5 7.8 0.00 0.00 0.00 30 1019.4
20260507122009 79 200 2.6 8.7 0.00 0.00 0.00 32 1019.4
20260507121522 78 216 0.9 8.7 0.00 0.00 0.00 33 1019.4
20260507121008 76 161 2.6 6.1 0.00 0.00 0.00 37 1019.5
20260507120510 75 227 0.9 6.1 0.00 0.00 0.00 42 1019.5
20260507120022 75 70 3.5 7.0 0.00 0.00 0.00 41 1019.6
20260507115510 76 80 3.5 7.8 0.00 0.00 0.00 39 1019.6
20260507115004 77 84 3.5 7.8 0.00 0.00 0.00 39 1019.6
20260507114510 77 123 1.7 6.1 0.00 0.00 0.00 38 1019.6
20260507114004 78 86 2.6 7.0 0.00 0.00 0.00 37 1019.6
20260507113503 79 79 4.3 8.7 0.00 0.00 0.00 35 1019.6
20260507113017 80 67 1.7 8.7 0.00 0.00 0.00 32 1019.7
20260507112504 81 87 1.7 6.1 0.00 0.00 0.00 31 1019.7
20260507112007 82 205 0.9 5.2 0.00 0.00 0.00 30 1019.7
20260507111518 81 55 0.9 5.2 0.00 0.00 0.00 31 1019.6
20260507111006 81 113 1.7 4.3 0.00 0.00 0.00 32 1019.6
20260507110507 80 233 0.9 6.1 0.00 0.00 0.00 33 1019.6
20260507110030 79 134 0.9 7.0 0.00 0.00 0.00 34 1019.7
20260507105507 78 188 3.5 8.7 0.00 0.00 0.00 34 1019.8
20260507105007 76 169 2.6 8.7 0.00 0.00 0.00 35 1019.9
20260507104525 75 160 3.5 8.7 0.00 0.00 0.00 38 1020.0
20260507104014 73 76 0.0 6.1 0.00 0.00 0.00 47 1020.0
20260507103506 72 89 1.7 7.8 0.00 0.00 0.00 48 1020.0
20260507103012 72 66 0.9 7.8 0.00 0.00 0.00 48 1020.0
20260507102503 72 57 3.5 7.0 0.00 0.00 0.00 48 1020.0
20260507102004 72 122 1.7 7.8 0.00 0.00 0.00 50 1019.9
20260507101517 72 66 0.9 7.8 0.00 0.00 0.00 52 1020.0
20260507101004 72 113 0.9 7.0 0.00 0.00 0.00 53 1020.0
20260507100508 71 123 1.7 8.7 0.00 0.00 0.00 52 1020.0
20260507100025 71 113 2.6 8.7 0.00 0.00 0.00 52 1020.0
20260507095507 71 360 0.9 7.8 0.00 0.00 0.00 50 1020.0
20260507095007 72 80 1.7 7.8 0.00 0.00 0.00 49 1020.0
20260507094526 72 360 2.6 7.8 0.00 0.00 0.00 47 1019.9
20260507094007 73 82 2.6 7.0 0.00 0.00 0.00 45 1020.0
20260507093511 73 109 2.6 7.0 0.00 0.00 0.00 45 1020.0
20260507093036 73 159 0.9 5.2 0.00 0.00 0.00 46 1020.1
20260507092509 73 74 0.9 5.2 0.00 0.00 0.00 47 1020.1
20260507092003 72 123 0.9 4.3 0.00 0.00 0.00 48 1020.1
20260507091518 72 360 1.7 7.0 0.00 0.00 0.00 49 1020.0
20260507091006 72 360 2.6 7.0 0.00 0.00 0.00 49 1020.0
20260507090507 71 360 1.7 7.8 0.00 0.00 0.00 48 1020.2
20260507090019 71 360 2.6 7.8 0.00 0.00 0.00 49 1020.2
20260507085505 71 360 1.7 7.0 0.00 0.00 0.00 48 1020.1
20260507085006 71 360 1.7 6.1 0.00 0.00 0.00 49 1020.2
20260507084525 72 51 1.7 5.2 0.00 0.00 0.00 48 1020.3
20260507084009 72 68 1.7 5.2 0.00 0.00 0.00 48 1020.3
20260507083511 71 138 0.9 7.8 0.00 0.00 0.00 48 1020.2
20260507083026 71 91 1.7 7.8 0.00 0.00 0.00 48 1020.1
20260507082509 71 360 1.7 7.0 0.00 0.00 0.00 47 1020.1
20260507082015 71 82 1.7 6.1 0.00 0.00 0.00 48 1020.2
20260507081526 70 123 1.7 6.1 0.00 0.00 0.00 49 1020.2
20260507081008 70 360 1.7 7.8 0.00 0.00 0.00 51 1020.2
20260507080504 70 126 2.6 9.6 0.00 0.00 0.00 52 1020.2
20260507080016 69 360 1.7 9.6 0.00 0.00 0.00 52 1020.2
20260507075504 69 360 1.7 7.0 0.00 0.00 0.00 53 1020.2
20260507075005 69 360 0.9 7.0 0.00 0.00 0.00 53 1020.3
20260507074520 68 360 0.9 5.2 0.00 0.00 0.00 56 1020.3
20260507074006 68 360 1.7 8.7 0.00 0.00 0.00 56 1020.3
20260507073509 68 76 2.6 8.7 0.00 0.00 0.00 55 1020.3
20260507073028 69 360 2.6 8.7 0.00 0.00 0.00 54 1020.3
20260507072508 69 360 3.5 8.7 0.00 0.00 0.00 52 1020.2
20260507072009 69 360 2.6 7.8 0.00 0.00 0.00 51 1020.1
20260507071528 70 360 2.6 5.2 0.00 0.00 0.00 52 1020.2
20260507071009 70 128 0.9 5.2 0.00 0.00 0.00 54 1020.2
20260507070511 70 360 0.9 5.2 0.00 0.00 0.00 55 1020.2
20260507070026 70 76 0.9 5.2 0.00 0.00 0.00 54 1020.2
20260507065509 69 360 0.9 5.2 0.00 0.00 0.00 54 1020.2
20260507065009 68 360 0.9 5.2 0.00 0.00 0.00 55 1020.2
20260507064518 68 360 1.7 7.0 0.00 0.00 0.00 54 1020.2
20260507064005 68 68 2.6 7.0 0.00 0.00 0.00 52 1020.3
20260507063508 68 80 1.7 7.0 0.00 0.00 0.00 54 1020.3
20260507063036 68 58 0.0 2.6 0.00 0.00 0.00 59 1020.4
20260507062510 68 58 0.9 2.6 0.00 0.00 0.00 60 1020.3
20260507062007 68 40 0.0 2.6 0.00 0.00 0.00 61 1020.5
20260507061527 67 33 0.0 1.7 0.00 0.00 0.00 62 1020.4
20260507061009 67 60 0.0 2.6 0.00 0.00 0.00 64 1020.3
20260507060508 66 360 0.0 2.6 0.00 0.00 0.00 64 1020.3
20260507060040 66 67 0.9 2.6 0.00 0.00 0.00 65 1020.3
20260507055509 66 66 0.9 2.6 0.00 0.00 0.00 68 1020.3
20260507055017 65 59 0.0 2.6 0.00 0.00 0.00 70 1020.3
20260507054527 65 360 0.9 2.6 0.00 0.00 0.00 69 1020.3
20260507054010 65 39 0.9 2.6 0.00 0.00 0.00 69 1020.2
20260507053505 65 37 0.0 1.7 0.00 0.00 0.00 70 1020.2
20260507053021 65 360 0.0 1.7 0.00 0.00 0.00 70 1020.2
20260507052505 64 38 0.9 1.7 0.00 0.00 0.00 72 1020.1
20260507052008 64 360 0.0 1.7 0.00 0.00 0.00 73 1020.0
20260507051526 63 360 0.0 1.7 0.00 0.00 0.00 74 1019.9
20260507051003 62 360 0.0 2.6 0.00 0.00 0.00 75 1019.9
20260507050504 62 360 0.9 2.6 0.00 0.00 0.00 76 1019.8
20260507050010 61 360 0.0 1.7 0.00 0.00 0.00 77 1019.8
20260507045504 60 360 0.0 1.7 0.00 0.00 0.00 78 1019.7
20260507045004 60 344 0.0 1.7 0.00 0.00 0.00 78 1019.7
20260507044515 60 344 0.0 1.7 0.00 0.00 0.00 78 1019.8
20260507044004 59 360 0.0 2.6 0.00 0.00 0.00 78 1019.7
20260507043501 59 360 0.0 2.6 0.00 0.00 0.00 78 1019.7
20260507043005 58 360 0.0 1.7 0.00 0.00 0.00 78 1019.6
20260507042503 58 360 0.0 1.7 0.00 0.00 0.00 78 1019.6
20260507042002 58 360 0.0 1.7 0.00 0.00 0.00 78 1019.5
20260507041505 57 360 0.0 1.7 0.00 0.00 0.00 78 1019.5
20260507041004 57 360 0.0 1.7 0.00 0.00 0.00 78 1019.5
20260507040504 57 360 0.0 1.7 0.00 0.00 0.00 77 1019.4
20260507040006 57 360 0.0 2.6 0.00 0.00 0.00 77 1019.2
20260507035505 56 360 0.0 3.5 0.00 0.00 0.00 77 1019.1
20260507035005 56 360 0.9 4.3 0.00 0.00 0.00 77 1019.0
20260507034526 56 360 2.6 4.3 0.00 0.00 0.00 76 1019.0
20260507034009 56 360 1.7 3.5 0.00 0.00 0.00 76 1018.9
20260507033509 56 360 1.7 3.5 0.00 0.00 0.00 75 1018.8
20260507033016 56 360 1.7 3.5 0.00 0.00 0.00 75 1018.7
20260507032507 56 360 0.9 3.5 0.00 0.00 0.00 75 1018.6
20260507032002 56 360 0.0 4.3 0.00 0.00 0.00 74 1018.6
20260507031504 57 360 2.6 4.3 0.00 0.00 0.00 74 1018.5
20260507031003 57 360 1.7 4.3 0.00 0.00 0.00 73 1018.5
20260507030504 57 360 1.7 4.3 0.00 0.00 0.00 73 1018.5
20260507030008 57 360 1.7 4.3 0.00 0.00 0.00 72 1018.4
20260507025503 57 360 0.9 3.5 0.00 0.00 0.00 72 1018.3
20260507025004 58 360 0.0 3.5 0.00 0.00 0.00 71 1018.4
20260507024510 58 360 0.9 3.5 0.00 0.00 0.00 71 1018.3
20260507024007 58 360 0.9 3.5 0.00 0.00 0.00 71 1018.4
20260507023505 58 360 1.7 3.5 0.00 0.00 0.00 71 1018.4
20260507023016 58 360 1.7 3.5 0.00 0.00 0.00 70 1018.4
20260507022507 58 360 0.0 1.7 0.00 0.00 0.00 70 1018.3
20260507022011 58 360 0.0 1.7 0.00 0.00 0.00 70 1018.3
20260507021516 58 360 0.9 2.6 0.00 0.00 0.00 70 1018.3
20260507021007 57 360 0.0 2.6 0.00 0.00 0.00 70 1018.3
20260507020503 57 360 0.0 2.6 0.00 0.00 0.00 70 1018.2
20260507020010 57 360 0.0 0.9 0.00 0.00 0.00 69 1018.2
20260507015503 57 360 0.0 0.9 0.00 0.00 0.00 69 1018.2
20260507015004 57 360 0.0 0.9 0.00 0.00 0.00 69 1018.0
20260507014508 57 360 0.0 0.0 0.00 0.00 0.00 69 1018.0
20260507014005 57 360 0.0 0.0 0.00 0.00 0.00 69 1018.0
20260507013505 57 360 0.0 3.5 0.00 0.00 0.00 69 1018.0
20260507013018 57 360 0.0 4.3 0.00 0.00 0.00 69 1018.0
20260507012503 57 360 0.9 5.2 0.00 0.00 0.00 68 1018.0
20260507012009 57 360 1.7 5.2 0.00 0.00 0.00 68 1018.1
20260507011515 57 360 2.6 5.2 0.00 0.00 0.00 68 1018.0
20260507011007 57 360 2.6 4.3 0.00 0.00 0.00 66 1018.0
20260507010508 57 360 0.9 3.5 0.00 0.00 0.00 66 1018.0
20260507010020 57 360 1.7 3.5 0.00 0.00 0.00 65 1018.0
20260507005508 57 360 1.7 3.5 0.00 0.00 0.00 65 1018.1
20260507005004 57 360 1.7 3.5 0.00 0.00 0.00 64 1018.2
20260507004506 57 360 1.7 3.5 0.00 0.00 0.00 63 1018.1
20260507004004 57 360 0.9 3.5 0.00 0.00 0.00 63 1018.1
20260507003504 58 360 1.7 3.5 0.00 0.00 0.00 62 1018.2
20260507003010 58 360 0.9 3.5 0.00 0.00 0.00 62 1018.2
20260507002505 58 360 0.9 3.5 0.00 0.00 0.00 61 1018.2
20260507002007 58 360 0.9 1.7 0.00 0.00 0.00 61 1018.2
20260507001515 58 360 0.0 2.6 0.00 0.00 0.00 61 1018.2
20260507001012 58 360 0.0 3.5 0.00 0.00 0.00 61 1018.2
20260507000507 58 360 1.7 4.3 0.00 0.00 0.00 61 1018.2
20260507000022 58 360 1.7 4.3 0.00 0.00 0.00 61 1018.1
20260506235511 58 360 1.7 4.3 0.00 0.00 0.00 61 1018.2
20260506235008 58 360 1.7 3.5 0.00 0.00 0.00 61 1018.2
20260506234529 58 360 1.7 4.3 0.00 0.00 0.00 61 1018.2
20260506234011 58 360 0.9 4.3 0.00 0.00 0.00 61 1018.2
20260506233503 58 360 1.7 4.3 0.00 0.00 0.00 61 1018.2
20260506233006 58 360 0.9 3.5 0.00 0.00 0.00 61 1018.2
20260506232504 58 360 1.7 4.3 0.00 0.00 0.00 61 1018.3
20260506232004 58 360 1.7 4.3 0.00 0.00 0.00 61 1018.3
20260506231509 58 360 1.7 3.5 0.00 0.00 0.00 62 1018.3
20260506231006 58 360 1.7 4.3 0.00 0.00 0.00 62 1018.4
20260506230505 58 360 1.7 4.3 0.00 0.00 0.00 63 1018.4
20260506230016 58 360 1.7 4.3 0.00 0.00 0.00 63 1018.4
20260506225504 58 360 1.7 4.3 0.00 0.00 0.00 64 1018.4
20260506225008 58 360 2.6 4.3 0.00 0.00 0.00 64 1018.5
20260506224520 58 360 2.6 4.3 0.00 0.00 0.00 65 1018.5
20260506224008 59 360 0.9 4.3 0.00 0.00 0.00 65 1018.5
20260506223508 59 360 1.7 4.3 0.00 0.00 0.00 64 1018.5
20260506223024 59 360 1.7 4.3 0.00 0.00 0.00 64 1018.6